Location: Pasadena, ca
(34.1243°N, 118.1037°W)
Time: 10:53:06
(UTC-07:00)

Vanguard 3 - All Passes

Search period start: 16 July 2018 00:00
Search period end: 26 July 2018 00:00
Orbit: 508 x 3264 km, 33.3° (Epoch: 16 July)

Date Brightness Start Highest point End Pass type
(mag) Time Alt. Az. Time Alt. Az. Time Alt. Az.
16 Jul - 00:27:28 10° W 00:32:08 39° SSW 00:35:40 10° SE visible
16 Jul - 16:26:25 10° SSW 16:39:24 27° SSE 16:48:33 10° E daylight
16 Jul - 18:39:51 10° SW 18:53:42 54° SSE 19:01:33 10° E daylight
16 Jul - 20:56:25 10° W 21:06:47 82° S 21:12:29 10° E visible
16 Jul - 23:12:15 10° W 23:18:48 67° SSW 23:22:58 10° ESE visible
17 Jul - 01:27:01 10° WSW 01:29:33 15° SSW 01:31:50 10° S night (unlit)
17 Jul - 15:13:00 10° S 15:23:41 18° SE 15:32:18 10° ESE daylight
17 Jul - 17:23:30 10° SW 17:38:33 43° SSE 17:47:50 10° E daylight
17 Jul - 19:39:25 10° WSW 19:52:25 73° SSE 19:59:26 10° E daylight
17 Jul - 21:56:18 10° W 22:05:06 83° S 22:10:06 10° E visible
18 Jul - 00:11:29 10° W 00:16:28 34° SSW 00:20:05 10° SE visible
18 Jul - 14:05:23 10° SSE 14:07:44 10° SE 14:10:00 10° SE daylight
18 Jul - 16:08:00 10° SSW 16:22:59 33° SSE 16:33:24 10° E daylight
18 Jul - 18:22:20 10° WSW 18:37:32 62° SSE 18:46:08 10° E daylight
18 Jul - 20:39:33 10° W 20:50:58 85° S 20:57:09 10° E visible
18 Jul - 22:55:54 10° W 23:03:09 62° SSW 23:07:35 10° ESE visible
19 Jul - 01:11:44 10° WSW 01:13:44 13° SW 01:15:33 10° S night (unlit)
19 Jul - 14:53:56 10° S 15:07:07 23° SE 15:17:36 10° E daylight
19 Jul - 17:05:38 10° SW 17:22:12 50° SSE 17:32:24 10° E daylight
19 Jul - 19:22:14 10° WSW 19:36:23 79° S 19:44:02 10° E daylight
19 Jul - 21:39:38 10° W 21:49:23 81° S 21:54:47 10° ESE visible
19 Jul - 23:55:25 10° W 00:00:44 30° SSW 00:04:28 10° SSE visible
20 Jul - 13:42:47 10° SSE 13:51:08 14° SE 13:58:44 10° ESE daylight
20 Jul - 15:49:50 10° SSW 16:06:24 39° SSE 16:17:59 10° E daylight
20 Jul - 18:04:50 10° WSW 18:21:17 68° SSE 18:30:39 10° E daylight
20 Jul - 20:22:36 10° W 20:35:05 86° S 20:41:47 10° E visible
20 Jul - 22:39:25 10° W 22:47:26 57° SSW 22:52:10 10° ESE visible
21 Jul - 00:56:49 10° SW 00:57:51 11° SW 00:58:48 10° SSW visible
21 Jul - 14:35:22 10° SSW 14:50:23 28° SE 15:02:25 10° E daylight
21 Jul - 16:47:55 10° SW 17:05:41 57° SSE 17:16:51 10° E daylight
21 Jul - 19:05:01 10° WSW 19:20:17 83° S 19:28:35 10° E daylight
21 Jul - 21:22:52 10° W 21:33:35 78° SSW 21:39:26 10° ESE visible
21 Jul - 23:39:15 10° W 23:44:54 27° SW 23:48:48 10° SSE visible
22 Jul - 13:23:07 10° S 13:34:21 18° SE 13:44:33 10° ESE daylight
22 Jul - 15:31:53 10° SW 15:49:40 45° SSE 16:02:24 10° E daylight
22 Jul - 17:47:25 10° WSW 18:04:55 74° SSE 18:15:06 10° E daylight
22 Jul - 20:05:34 10° W 20:19:08 86° S 20:26:24 10° E daylight
22 Jul - 22:22:51 10° W 22:31:37 52° SSW 22:36:43 10° SE visible
23 Jul - 14:17:10 10° SSW 14:33:29 33° SE 14:46:55 10° E daylight
23 Jul - 16:30:18 10° SW 16:49:02 63° SSE 17:01:11 10° E daylight
23 Jul - 18:47:47 10° W 19:04:05 85° S 19:13:06 10° E daylight
23 Jul - 21:05:58 10° W 21:17:42 75° SSW 21:24:03 10° ESE visible
23 Jul - 23:23:00 10° W 23:28:58 25° SW 23:33:04 10° SSE visible
24 Jul - 13:04:20 10° S 13:17:25 22° SE 13:29:33 10° E daylight
24 Jul - 15:14:09 10° SW 15:32:48 50° SSE 15:46:38 10° E daylight
24 Jul - 17:30:01 10° WSW 17:48:27 78° SSE 17:59:28 10° E daylight
24 Jul - 19:48:28 10° W 20:03:05 85° S 20:10:59 10° E daylight
24 Jul - 22:06:09 10° W 22:15:42 48° SSW 22:21:13 10° SE visible
25 Jul - 11:56:14 10° SSE 12:01:36 12° SE 12:06:58 10° ESE daylight
25 Jul - 13:59:17 10° SSW 14:16:28 38° SE 14:31:08 10° E daylight
25 Jul - 16:12:50 10° WSW 16:32:17 68° SSE 16:45:25 10° E daylight
25 Jul - 18:30:33 10° W 18:47:48 87° S 18:57:34 10° E daylight
25 Jul - 20:48:59 10° W 21:01:43 71° SSW 21:08:37 10° ESE visible
25 Jul - 23:06:42 10° W 23:12:57 23° SW 23:17:17 10° S visible
